Presure
79 77 82 75 73 78 88 91 86 82 77 89 90 86 133 92 122 108 132 135 132 137 152 156 143 152 142 155 148 157 149 154 91 123 105 126 126 113 85 160 116 155 134
112 124 82 78 81 73 87 78 80 80 92 91 89 124 74 86 89 136 79 118 138 143 153 139 147 164 124 126 104 161 145 151 148 150 84 89 106 138 93 89 95 136 86
122 122 88 84 83 77 79 105 81 98 81 127 133 78 97 108 79 132 106 116 141 100 151 151 158 161 161 143 102 105 165 158 160 166 151 152 95 149 147 142 98 88 83
116 87 81 91 82 91 88 80 79 79 91 90 85 140 127 86 82 81 83 127 116 85 111 98 165 155 132 153 142 160 120 92 145 146 162 148 157 93 88 95 88 95 100
100 122 162 138 116 78 77 82 111 81 78 113 164 124 126 159 125 115 146 108 96 86 117 74 84 156 96 142 106 139 135 153 141 156 154 160 152 161 161 158 132 95 92
123 150 163 156 163 103 162 99 98 147 169 97 152 127 176 130 133 146 157 106 148 134 99 91 142 95 153 92 153 153 151 144 130 126 164 162 171 146 144 73 75 153 158
83 111 154 144 91 121 148 114 162 137 100 145 157 150 123 125 154 131 146 154 133 137 142 147 138 92 163 156 142 158 141 157 147 153 156 151 157 161 163 158 161 141 155
138 150 89 81 90 111 131 171 168 163 147 126 99 87 86 157 118 119 112 126 135 136 164 152 133 143 97 165 121 143 161 153 138 144 118 162 149 128 132 159 159 136 163
167 164 136 94 97 154 76 144 79 103 101 144 117 82 83 87 89 94 119 119 118 123 134 98 114 140 142 150 151 163 92 137 135 153 159 163 137 81 89 95 94 133 163
150 151 81 152 156 153 154 84 131 144 155 90 84 151 94 153 85 108 171 103 117 126 126 156 91 92 100 141 147 143 153 156 146 104 151 160 161 159 195 188 95 97 98
154 151 151 154 156 152 103 145 139 138 136 173 150 115 109 181 113 108 108 113 119 96 113 129 137 102 154 157 154 134 144 156 157 140 104 164 163 180 166 99 89 89 144
160 157 158 153 156 158 161 172 169 169 164 165 135 160 127 131 165 165 142 157 129 166 146 127 131 125 136 141 145 145 164 152 147 144 151 194 190 169 166 187 196 189 156
160 166 153 155 167 166 165 154 161 148 151 161 157 150 155 157 164 156 168 173 186 207 136 154 148 191 167 195 152 144 159 160 140 165 153 184 200 186 180 173 182 83 189
145 154 160 164 153 148 146 155 162 148 148 177 151 150 151 155 163 171 163 163 169 179 215 153 140 137 174 185 193 188 149 162 139 164 155 186 187 188 165 183 175 164 177
148 155 133 140 142 146 167 169 171 158 154 160 150 147 153 160 172 162 195 198 186 146 191 191 156 165 180 191 192 194 185 146 145 168 174 199 189 178 176 178 181 175 167
166 153 147 152 152 169 161 166 153 155 157 160 155 145 149 195 203 193 159 198 201 181 173 181 148 178 182 180 192 186 199 178 154 183 187 196 187 177 175 172 177 186 176
149 153 150 150 165 159 160 149 150 129 147 153 160 216 165 182 204 224 150 151 203 180 211 181 171 167 161 199 189 199 178 160 195 191 184 189 184 180 184 185 173 176 176
146 126 145 151 155 158 152 142 150 149 148 153 155 158 163 209 215 210 209 196 209 207 228 185 212 179 154 189 191 180 180 159 188 191 186 176 176 183 173 172 166 171 171
157 159 160 160 166 157 152 147 169 170 147 152 155 172 205 207 212 202 210 204 203 207 211 209 218 208 165 186 187 181 179 187 181 184 180 177 153 176 184 166 164 166 164
153 153 153 153 153 157 163 159 164 163 160 147 156 198 201 196 207 199 205 203 200 204 205 220 218 213 203 184 174 179 173 172 179 149 179 177 181 163 181 177 184 177 171
150 143 145 140 151 150 128 156 170 168 158 146 158 206 205 205 204 202 202 195 196 196 200 209 207 214 202 181 178 181 173 164 175 178 160 174 179 156 178 176 185 192 161
154 151 157 158 159 160 151 151 162 170 172 160 208 209 203 193 195 199 203 199 198 196 199 191 206 212 214 210 179 170 172 161 171 126 176 174 175 175 176 179 169 169 171
163 162 164 165 165 166 156 150 169 190 161 205 199 185 196 210 201 200 200 203 202 204 201 113 196 205 210 210 188 177 171 163 153 169 165 172 171 168 175 172 174 170 164
155 158 162 162 161 169 180 179 180 178 180 188 180 189 179 182 208 204 195 193 204 196 199 190 192 196 110 208 205 201 131 174 171 179 170 166 168 171 175 178 138 179 178
163 178 174 176 182 179 177 178 176 171 179 166 181 183 166 178 196 215 208 197 185 198 204 200 177 199 204 207 203 202 206 201 190 185 172 167 179 170 167 172 174 173 173
180 173 165 171 172 171 159 171 171 163 168 191 179 185 170 171 172 183 188 202 207 206 196 195 172 189 197 193 207 200 200 202 203 200 195 187 173 139 167 180 175 171 169
Wind_Speed
14 15 18 15 16 14 20 18 9 10 12 15 14 8 26 15 22 17 25 25 26 25 36 38 31 39 33 45 39 41 36 38 15 29 19 27 26 25 10 46 21 43 32
33 38 22 16 17 20 21 14 14 12 20 21 20 33 11 11 14 28 14 22 28 28 35 31 32 47 25 25 24 48 33 37 36 38 12 15 22 35 15 13 15 35 10
38 41 31 27 24 19 17 24 19 21 17 38 34 16 20 24 18 30 21 24 31 19 35 33 39 41 42 33 24 24 51 45 48 54 42 45 21 47 44 38 21 13 12
40 37 30 33 28 29 29 23 23 23 27 28 26 35 39 21 21 22 20 34 27 22 29 24 43 36 33 38 35 41 30 25 40 42 52 42 50 22 18 22 16 21 23
30 41 46 41 41 28 27 30 42 27 26 30 37 44 42 41 39 35 41 36 25 23 30 19 25 37 24 35 28 37 36 38 37 43 43 51 48 54 59 56 41 23 20
56 46 44 45 42 37 42 47 44 37 39 39 43 48 39 45 44 44 45 38 45 36 32 26 35 32 40 27 39 38 39 38 37 38 48 49 55 46 45 15 14 52 58
45 55 47 46 40 53 48 54 46 47 39 43 45 48 47 46 47 46 45 48 41 41 41 43 34 32 46 41 35 43 39 45 41 42 45 45 48 51 58 57 59 51 60
51 49 47 44 45 52 46 45 44 43 47 54 44 39 42 50 38 42 42 42 46 44 48 46 36 41 36 47 40 39 47 44 44 42 34 49 47 44 48 58 59 49 65
54 54 54 51 52 50 42 43 43 47 48 44 51 44 45 46 45 44 44 43 39 42 46 42 42 42 41 42 44 47 39 47 46 45 45 48 45 25 30 36 31 53 62
57 57 49 55 51 49 46 52 49 49 48 50 49 49 53 50 51 48 54 45 44 47 48 51 46 48 48 49 46 44 45 47 41 47 44 48 49 50 63 66 38 37 40
62 61 56 56 54 52 55 51 54 53 56 52 53 53 54 54 56 53 49 50 53 49 47 54 54 51 51 50 50 50 47 44 47 47 51 51 51 56 50 36 33 34 51
63 63 61 57 57 57 56 56 54 52 51 51 52 50 57 58 56 58 59 59 64 56 58 57 56 50 52 50 50 52 55 46 44 45 47 55 57 52 51 59 61 66 58
62 63 59 60 61 59 57 53 54 56 54 55 52 55 57 58 57 58 60 60 60 55 66 59 61 56 56 55 54 53 54 53 47 53 48 56 56 57 56 53 57 36 64
61 61 63 62 58 58 59 58 60 59 57 56 57 56 60 59 59 61 61 60 61 60 50 62 63 63 56 49 55 53 54 55 51 53 49 54 53 54 55 59 55 52 59
62 64 66 66 66 63 62 61 59 59 58 58 61 60 61 61 60 61 59 57 59 64 56 56 59 57 54 53 53 52 55 51 51 55 54 57 48 53 57 53 58 59 53
71 70 69 69 66 65 63 60 61 60 59 59 64 64 64 60 60 60 62 56 55 61 61 58 65 55 52 54 54 55 52 56 54 57 55 53 51 53 56 53 58 60 59
72 73 73 69 68 65 65 65 65 64 64 62 60 56 64 61 54 51 61 59 55 62 50 60 58 57 55 53 55 49 57 56 55 53 54 53 53 54 53 58 58 59 57
75 67 76 74 71 69 70 72 69 68 67 63 61 63 65 56 53 54 54 53 50 50 42 59 49 58 59 55 55 56 55 56 55 54 54 55 53 55 56 57 57 61 60
81 79 78 78 78 73 73 72 71 70 68 65 63 67 55 55 53 56 51 52 51 49 47 48 45 50 60 58 58 57 56 53 56 55 59 54 54 55 56 59 59 61 65
82 79 79 79 77 75 74 73 73 71 70 66 65 60 57 58 54 55 52 51 54 49 48 40 43 46 52 58 59 59 59 59 57 51 59 60 59 57 58 60 61 65 68
85 82 82 84 79 75 68 75 77 75 71 67 67 58 56 57 55 55 54 55 56 51 50 45 46 45 52 60 61 60 62 61 60 61 57 62 61 58 61 61 59 59 65
88 86 87 86 84 81 81 80 79 77 75 71 58 55 57 59 56 55 56 56 56 53 51 48 44 45 47 49 61 64 63 64 63 53 63 63 64 63 64 64 64 65 66
94 93 91 91 89 86 80 79 83 71 72 59 58 63 56 55 56 57 55 54 54 54 51 51 50 47 45 47 60 64 66 67 67 67 66 67 67 67 68 69 69 70 70
83 88 90 88 86 88 86 80 80 75 70 68 67 65 61 60 54 55 53 53 52 52 52 55 53 48 35 47 51 57 60 67 69 66 70 69 70 71 71 71 63 73 74
98 103 101 98 91 87 84 81 78 77 70 72 69 67 62 62 52 54 55 52 51 52 54 53 55 47 47 46 51 52 52 55 63 66 72 73 71 74 75 74 75 76 76
104 103 100 94 92 88 82 80 79 75 74 71 73 71 65 63 61 54 52 52 53 53 52 53 57 52 48 50 50 54 52 53 54 58 63 67 74 69 76 75 78 79 79
Wind_Direction
259 235 244 209 222 245 255 251 232 235 251 274 270 260 242 269 238 249 245 253 247 249 251 249 266 258 261 259 264 259 264 267 242 261 249 263 264 247 195 265 256 263 262
248 237 250 234 246 224 263 244 245 234 271 273 267 233 250 273 269 244 269 254 256 255 253 253 258 243 247 247 248 258 272 270 270 270 229 236 254 263 228 235 247 268 194
244 237 255 259 258 242 255 252 264 266 258 246 244 246 266 254 251 254 261 257 254 250 255 254 253 251 252 263 258 258 255 267 267 263 270 268 248 267 270 268 258 213 195
248 248 258 256 263 260 263 259 258 260 266 266 275 244 247 266 253 252 245 248 258 265 247 272 260 262 254 262 261 265 262 253 269 267 264 270 269 250 236 249 236 252 257
243 247 244 248 251 258 253 257 242 265 266 256 244 249 250 245 247 251 254 251 258 257 265 244 268 267 262 252 247 262 264 272 264 267 269 268 271 269 268 271 269 253 250
236 244 248 248 251 258 252 253 255 252 253 258 243 247 249 253 253 253 245 262 258 257 268 260 262 266 265 266 263 268 269 267 262 266 268 267 264 274 273 230 228 275 273
253 241 251 251 256 248 250 249 248 250 261 249 250 246 251 253 250 256 250 251 255 259 252 261 263 255 262 261 256 269 259 269 267 271 270 269 269 260 263 268 267 270 270
252 250 251 257 253 253 255 258 253 255 249 241 251 257 263 251 255 254 258 260 258 257 253 256 259 262 256 261 261 256 264 262 257 264 266 267 268 256 258 265 268 264 269
252 252 248 251 252 253 258 256 258 252 251 253 257 259 261 261 261 261 258 259 258 260 259 262 262 257 259 261 260 263 260 255 259 267 268 266 263 240 262 261 262 264 269
246 248 256 250 253 252 253 253 252 252 253 252 255 253 256 247 263 262 256 262 262 263 264 253 263 266 268 263 257 258 261 262 258 260 267 268 267 268 256 258 262 263 265
247 248 249 254 256 255 249 248 254 255 258 258 253 256 259 259 263 264 263 268 269 255 259 267 263 263 258 259 260 259 259 263 267 258 260 269 269 265 267 256 255 256 262
247 249 251 252 254 255 257 261 260 260 255 255 254 253 258 258 257 259 262 263 263 257 264 268 268 268 265 262 258 262 261 261 260 262 267 261 260 269 269 266 260 260 267
250 254 252 253 255 256 257 254 255 251 253 254 248 250 254 255 256 255 258 260 261 261 259 254 255 263 261 261 259 261 260 261 258 264 266 263 256 262 268 270 270 264 268
244 248 254 255 252 252 252 256 256 252 255 266 253 252 255 257 258 258 257 257 259 262 259 252 265 265 263 261 256 253 262 258 260 263 262 263 264 263 262 264 264 259 269
249 251 243 245 247 250 256 257 259 255 256 257 255 255 258 258 259 258 261 260 258 262 260 260 253 257 260 257 255 254 254 261 264 262 263 263 260 261 263 265 265 265 262
249 248 248 248 250 255 253 255 250 252 257 259 255 257 258 264 265 262 260 261 257 257 260 256 255 257 258 256 255 254 254 254 261 259 258 258 260 258 262 264 267 267 265
243 247 247 250 256 253 254 249 249 250 252 256 263 261 267 261 260 262 259 259 258 256 258 255 256 257 258 251 251 252 255 257 255 257 261 262 261 261 262 262 265 266 264
243 245 246 248 249 251 249 249 250 251 252 257 259 265 268 259 256 258 260 259 260 259 258 255 252 255 257 252 251 251 253 260 256 256 254 256 259 259 260 262 262 268 267
244 247 251 253 258 253 250 253 265 266 253 257 262 272 258 257 255 258 257 258 257 257 257 254 251 248 256 250 250 251 252 251 256 257 261 258 255 263 261 261 263 264 264
242 243 245 248 250 253 259 259 263 261 260 257 264 266 257 258 254 257 255 255 256 257 257 255 251 249 246 247 252 251 251 253 253 256 257 260 260 255 258 259 259 260 265
243 243 244 246 250 251 254 260 263 261 260 260 265 255 252 254 253 253 252 254 257 258 258 259 253 252 246 246 249 250 253 256 255 255 256 257 261 259 261 260 263 263 260
245 247 251 252 253 255 252 255 261 263 264 263 252 251 252 255 254 251 249 252 255 257 257 259 256 255 252 249 246 251 251 255 256 256 258 261 263 265 265 267 262 264 263
247 249 251 252 254 255 255 257 260 261 262 250 251 260 251 248 250 250 253 253 254 255 254 262 255 257 255 253 244 246 249 254 258 257 258 259 260 262 264 265 267 267 265
249 249 250 251 252 254 255 254 256 258 259 256 263 257 262 261 248 249 253 253 251 253 252 254 255 257 266 255 253 251 259 250 253 252 256 258 260 261 262 263 262 265 267
247 248 249 250 250 251 252 254 256 258 258 260 257 254 258 257 255 246 252 254 256 256 254 255 253 258 258 256 256 255 255 253 252 253 254 257 257 260 263 264 264 266 267
244 246 249 250 251 251 254 255 257 258 260 249 255 252 258 259 260 255 254 253 256 254 257 255 253 257 256 255 257 254 254 257 257 256 256 256 257 262 263 263 264 266 267